2023/02/02 00:00:00,152.8,-0.3
2023/02/02 00:10:00,152.5,-0.5
2023/02/02 00:20:00,152.4,-0.5
2023/02/02 00:30:00,152.4,-0.7
2023/02/02 00:40:00,152.1,-0.7
2023/02/02 00:50:00,151.7,-0.7
2023/02/02 01:00:00,151.9,-0.7
2023/02/02 01:10:00,152.1,-0.9
2023/02/02 01:20:00,151.9,-0.7
2023/02/02 01:30:00,152.2,-1.1
2023/02/02 01:40:00,152.3,-0.9
2023/02/02 01:50:00,152.3,-1.0
2023/02/02 02:00:00,152.4,-0.4
2023/02/02 02:10:00,152.4,-0.8
2023/02/02 02:20:00,152.4,-1.1
2023/02/02 02:30:00,152.7,-1.2
2023/02/02 02:40:00,152.4,-1.3
2023/02/02 02:50:00,152.4,-1.4
2023/02/02 03:00:00,152.8,-1.3
2023/02/02 03:10:00,152.7,-1.3
2023/02/02 03:20:00,152.5,-1.2
2023/02/02 03:30:00,152.3,-1.2
2023/02/02 03:40:00,152.1,-1.3
2023/02/02 03:50:00,152.2,-1.8
2023/02/02 04:00:00,152.2,-1.3
2023/02/02 04:10:00,152.0,-1.4
2023/02/02 04:20:00,151.9,-1.6
2023/02/02 04:30:00,152.2,-1.8
2023/02/02 04:40:00,152.0,-1.4
2023/02/02 04:50:00,152.1,-1.4
2023/02/02 05:00:00,152.0,-1.6
2023/02/02 05:10:00,152.1,-1.7
2023/02/02 05:20:00,151.9,-1.8
2023/02/02 05:30:00,152.0,-2.1
2023/02/02 05:40:00,152.0,-1.8
2023/02/02 05:50:00,152.0,-1.7
2023/02/02 06:00:00,151.7,-2.0
2023/02/02 06:10:00,151.8,-2.0
2023/02/02 06:20:00,151.8,-2.1
2023/02/02 06:30:00,151.9,-1.9
2023/02/02 06:40:00,151.5,-1.7
2023/02/02 06:50:00,151.3,-1.9
2023/02/02 07:00:00,151.5,-2.0
2023/02/02 07:10:00,151.7,-1.9
2023/02/02 07:20:00,151.5,-2.1
2023/02/02 07:30:00,151.4,-1.9
2023/02/02 07:40:00,151.1,-1.7
2023/02/02 07:50:00,150.9,-1.7
2023/02/02 08:00:00,151.0,-1.5
2023/02/02 08:10:00,151.2,-1.4
2023/02/02 08:20:00,150.9,-1.8
2023/02/02 08:30:00,150.7,-1.2
2023/02/02 08:40:00,151.1,-1.0
2023/02/02 08:50:00,151.1,-0.8
2023/02/02 09:00:00,150.7,-0.4
2023/02/02 09:10:00,150.5,-0.2
2023/02/02 09:20:00,150.2,-0.6
2023/02/02 09:30:00,150.0,-0.7
2023/02/02 09:40:00,149.9,-1.0
2023/02/02 09:50:00,150.3,-0.3
2023/02/02 10:00:00,150.3, 0.3
2023/02/02 10:10:00,150.0,-0.4
2023/02/02 10:20:00,149.9, 0.2
2023/02/02 10:30:00,150.2, 0.9
2023/02/02 10:40:00,150.4, 1.2
2023/02/02 10:50:00,150.3, 1.4
2023/02/02 11:00:00,150.1, 1.3
2023/02/02 11:10:00,150.0, 0.7
2023/02/02 11:20:00,149.5, 0.6
2023/02/02 11:30:00,149.3,-0.2
2023/02/02 11:40:00,149.1,-0.4
2023/02/02 11:50:00,148.9,-1.0
2023/02/02 12:00:00,149.1,-0.1
2023/02/02 12:10:00,149.0,-1.0
2023/02/02 12:20:00,148.8,-0.9
2023/02/02 12:30:00,149.1,-0.4
2023/02/02 12:40:00,148.9, 0.0
2023/02/02 12:50:00,148.7, 0.1
2023/02/02 13:00:00,148.6, 0.2
2023/02/02 13:10:00,148.5,-0.1
2023/02/02 13:20:00,148.5, 0.4
2023/02/02 13:30:00,148.6, 0.8
2023/02/02 13:40:00,148.6, 0.5
2023/02/02 13:50:00,148.5, 0.6
2023/02/02 14:00:00,148.4, 0.1
2023/02/02 14:10:00,147.9,-0.4
2023/02/02 14:20:00,147.8,-0.7
2023/02/02 14:30:00,147.8,-0.5
2023/02/02 14:40:00,147.7,-0.4
2023/02/02 14:50:00,147.7,-0.3
2023/02/02 15:00:00,147.8, 0.5
2023/02/02 15:10:00,147.8, 0.3
2023/02/02 15:20:00,147.5, 0.3
2023/02/02 15:30:00,147.2,-0.1
2023/02/02 15:40:00,147.1, 0.0
2023/02/02 15:50:00,147.0, 0.0
2023/02/02 16:00:00,146.8,-0.4
2023/02/02 16:10:00,146.6,-0.5
2023/02/02 16:20:00,146.5,-0.5
2023/02/02 16:30:00,146.5,-0.3
2023/02/02 16:40:00,146.5,-0.8
2023/02/02 16:50:00,146.5,-0.9
2023/02/02 17:00:00,146.5,-0.9
2023/02/02 17:10:00,146.2,-1.2
2023/02/02 17:20:00,146.2,-1.3
2023/02/02 17:30:00,146.1,-1.1
2023/02/02 17:40:00,145.9,-1.4
2023/02/02 17:50:00,145.6,-1.8
2023/02/02 18:00:00,145.6,-1.3
2023/02/02 18:10:00,145.8,-1.3
2023/02/02 18:20:00,145.9,-1.4
2023/02/02 18:30:00,145.7,-1.2
2023/02/02 18:40:00,145.6,-1.6
2023/02/02 18:50:00,145.6,-1.6
2023/02/02 19:00:00,145.6,-1.6
2023/02/02 19:10:00,145.5,-1.4
2023/02/02 19:20:00,145.2,-1.4
2023/02/02 19:30:00,145.2,-1.4
2023/02/02 19:40:00,145.3,-1.3
2023/02/02 19:50:00,145.1,-1.4
2023/02/02 20:00:00,145.0,-1.6
2023/02/02 20:10:00,144.8,-1.3
2023/02/02 20:20:00,144.6,-1.4
2023/02/02 20:30:00,144.6,-1.6
2023/02/02 20:40:00,144.6,-1.5
2023/02/02 20:50:00,144.7,-1.7
2023/02/02 21:00:00,144.8,-1.6
2023/02/02 21:10:00,144.6,-1.8
2023/02/02 21:20:00,144.4,-1.7
2023/02/02 21:30:00,144.4,-1.8
2023/02/02 21:40:00,144.5,-1.7
2023/02/02 21:50:00,144.4,-1.6
2023/02/02 22:00:00,144.3,-1.6
2023/02/02 22:10:00,144.2,-1.8
2023/02/02 22:20:00,144.2,-1.7
2023/02/02 22:30:00,144.2,-1.6
2023/02/02 22:40:00,144.1,-1.7
2023/02/02 22:50:00,143.9,-1.8
2023/02/02 23:00:00,143.6,-1.8
2023/02/02 23:10:00,143.6,-2.0
2023/02/02 23:20:00,143.6,-2.3
2023/02/02 23:30:00,143.5,-1.9
2023/02/02 23:40:00,143.5,-2.1
2023/02/02 23:50:00,143.4,-2.0
